Location: Chamerau
(49.1969°N, 12.7525°E)
Time: 22:37:33
(UTC+00:00)

Cosmos 2369 Rocket - Pass Details

Date: 18 September 2020
Orbit: 827 x 854 km, 71.0° (Epoch: 30 October)

Event Time Altitude Azimuth Distance (km) Brightness Sun altitude
Exits shadow 22:59:47 20° 36° (NE) 1,879 4.4 -39.4°
Drops below altitude 10° 23:01:23 10° 33° (NNE) 2,468 5.1 -39.4°
Sets 23:03:52 0° 31° (NNE) 3,411 6.0 -39.4°
